GW4588 Weather Reports


Display with metric or nautical units.
time (UTC)temp
F
wind
direction
speed
MPH
gust
MPH
rain 1hr
in
rain 24hr
in
rain mn
in
humidity
%
barometer
mb
20260510160737 54 300 4.0 5.0 0.00 0.00 0.00 98 1012.9
20260510160232 54 275 0.0 5.0 0.00 0.00 0.00 99 1012.9
20260510155728 55 16 2.0 5.0 0.00 0.00 0.00 97 1012.6
20260510155224 56 34 2.0 3.0 0.00 0.00 0.00 96 1012.6
20260510154720 57 158 1.0 3.0 0.00 0.00 0.00 94 1012.6
20260510154216 55 140 2.0 5.0 0.00 0.00 0.00 97 1012.9
20260510153711 55 154 1.0 5.0 0.00 0.00 0.00 98 1012.7
20260510153207 55 339 1.0 4.0 0.00 0.00 0.00 99 1012.6
20260510152704 55 229 2.0 3.0 0.00 0.00 0.00 99 1012.7
20260510152200 55 266 2.0 3.0 0.00 0.00 0.00 97 1012.7
20260510151657 55 355 3.0 3.0 0.00 0.00 0.00 98 1012.7
20260510151156 55 137 2.0 5.0 0.00 0.00 0.00 98 1012.7
20260510150651 54 180 0.0 5.0 0.00 0.00 0.00 99 1012.8
20260510150146 55 7 0.0 5.0 0.00 0.00 0.00 99 1012.5
20260510145643 54 98 1.0 3.0 0.00 0.00 0.00 99 1012.4
20260510145140 54 152 2.0 4.0 0.00 0.00 0.00 99 1012.5
20260510144635 53 260 2.0 3.0 0.00 0.00 0.00 99 1012.4
20260510144132 54 243 1.0 3.0 0.00 0.00 0.00 99 1012.6
20260510143627 52 241 3.0 4.0 0.00 0.00 0.00 99 1012.5
20260510143124 53 340 1.0 4.0 0.00 0.00 0.00 99 1012.3
20260510142621 52 118 5.0 6.0 0.00 0.00 0.00 99 1012.4
20260510142118 51 44 1.0 6.0 0.00 0.00 0.00 99 1012.6
20260510141614 50 274 2.0 3.0 0.00 0.00 0.00 99 1012.5
20260510141113 50 194 0.0 3.0 0.00 0.00 0.00 99 1012.6
20260510140609 50 271 0.0 2.0 0.00 0.00 0.00 99 1012.7
20260510140108 49 209 0.0 5.0 0.00 0.00 0.00 99 1012.7
20260510135604 50 76 0.0 3.0 0.00 0.00 0.00 99 1012.6
20260510135100 50 267 1.0 3.0 0.00 0.00 0.00 99 1012.6
20260510134557 50 10 2.0 3.0 0.00 0.00 0.00 99 1012.4
20260510134054 50 260 2.0 4.0 0.00 0.00 0.00 99 1012.9
20260510133550 50 216 3.0 4.0 0.00 0.00 0.00 99 1012.7
20260510133046 50 182 2.0 7.0 0.00 0.00 0.00 99 1012.4
20260510132543 49 18 0.0 5.0 0.00 0.00 0.00 99 1012.5
20260510132040 49 220 3.0 4.0 0.00 0.00 0.00 99 1012.6
20260510131537 49 220 2.0 3.0 0.00 0.00 0.00 99 1012.6
20260510131035 48 222 0.0 5.0 0.00 0.00 0.00 99 1012.5
20260510130530 48 266 1.0 7.0 0.00 0.00 0.00 99 1012.5
20260510130028 49 201 2.0 2.0 0.00 0.00 0.00 99 1012.3
20260510125524 49 225 2.0 6.0 0.00 0.00 0.00 99 1012.5
20260510125021 48 258 1.0 7.0 0.00 0.00 0.00 99 1012.6
20260510124518 48 228 3.0 3.0 0.00 0.00 0.00 99 1012.5
20260510124015 48 240 0.0 6.0 0.00 0.00 0.00 99 1012.5
20260510123510 48 227 2.0 3.0 0.00 0.00 0.00 99 1012.4
20260510123006 48 254 2.0 3.0 0.00 0.00 0.00 99 1012.4
20260510122502 47 185 0.0 3.0 0.00 0.00 0.00 99 1012.2
20260510121958 47 208 2.0 5.0 0.00 0.00 0.00 99 1012.2
20260510121455 48 283 0.0 2.0 0.00 0.00 0.00 99 1012.4
20260510120953 47 226 2.0 3.0 0.00 0.00 0.00 99 1012.3
20260510120450 47 209 0.0 6.0 0.00 0.00 0.00 99 1012.5
20260510115945 47 241 3.0 5.0 0.00 0.00 0.00 99 1012.5
20260510115443 47 215 1.0 3.0 0.00 0.00 0.00 99 1012.6
20260510114938 47 223 3.0 5.0 0.00 0.00 0.00 99 1012.5
20260510114436 47 277 2.0 4.0 0.00 0.00 0.00 99 1012.6
20260510113931 47 209 1.0 5.0 0.00 0.00 0.00 99 1012.6
20260510113427 46 248 2.0 4.0 0.00 0.00 0.00 99 1012.4
20260510112925 46 185 3.0 6.0 0.00 0.00 0.00 99 1012.5
20260510112422 46 202 2.0 4.0 0.00 0.00 0.00 99 1012.5
20260510111918 46 32 0.0 5.0 0.00 0.00 0.00 99 1012.1
20260510111414 46 247 2.0 3.0 0.00 0.00 0.00 99 1012.3
20260510110909 46 258 3.0 3.0 0.00 0.00 0.00 99 1012.1
20260510110406 46 264 2.0 3.0 0.00 0.00 0.00 99 1012.3
20260510105902 46 265 2.0 2.0 0.00 0.00 0.00 99 1011.9
20260510105356 46 277 2.0 2.0 0.00 0.00 0.00 99 1011.9
20260510104852 46 257 3.0 3.0 0.00 0.00 0.00 99 1011.8
20260510104350 46 233 2.0 3.0 0.00 0.00 0.00 99 1011.8
20260510103846 46 247 1.0 2.0 0.00 0.00 0.00 99 1011.8
20260510103343 46 149 0.0 2.0 0.00 0.00 0.00 99 1011.7
20260510102839 46 246 2.0 3.0 0.00 0.00 0.00 99 1011.7
20260510102335 46 254 5.0 6.0 0.00 0.00 0.00 99 1011.2
20260510101832 46 235 1.0 2.0 0.00 0.00 0.00 99 1011.2
20260510101330 46 130 0.0 2.0 0.00 0.00 0.00 99 1011.3
20260510100826 46 235 0.0 2.0 0.00 0.00 0.00 99 1011.5
20260510100324 46 234 3.0 3.0 0.00 0.00 0.00 99 1011.3
20260510095820 46 224 0.0 5.0 0.00 0.00 0.00 99 1011.2
20260510095315 46 252 1.0 4.0 0.00 0.00 0.00 99 1011.0
20260510094814 46 224 0.0 6.0 0.00 0.00 0.00 99 1011.2
20260510094310 46 198 1.0 3.0 0.00 0.00 0.00 99 1010.9
20260510093806 46 218 0.0 2.0 0.00 0.00 0.00 99 1010.9
20260510093303 46 269 0.0 2.0 0.00 0.00 0.00 99 1011.0
20260510092759 46 216 1.0 2.0 0.00 0.00 0.00 99 1010.7
20260510092255 46 221 0.0 4.0 0.00 0.00 0.00 99 1010.7
20260510091750 46 167 0.0 2.0 0.00 0.00 0.00 99 1010.6
20260510091248 46 278 1.0 3.0 0.00 0.00 0.00 99 1010.8
20260510090744 46 226 1.0 4.0 0.00 0.00 0.00 99 1010.5
20260510090242 46 0 0.0 2.0 0.00 0.00 0.00 99 1010.6
20260510085737 46 315 0.0 1.0 0.00 0.00 0.00 99 1010.7
20260510085231 46 291 2.0 3.0 0.00 0.00 0.00 99 1010.7
20260510084728 46 147 0.0 2.0 0.00 0.00 0.00 99 1010.6
20260510084225 46 53 0.0 2.0 0.00 0.00 0.00 99 1010.7
20260510083721 46 249 0.0 2.0 0.00 0.00 0.00 99 1010.6
20260510083218 46 260 2.0 3.0 0.00 0.00 0.00 99 1011.2
20260510082714 46 239 2.0 3.0 0.00 0.00 0.00 99 1011.2
20260510082211 46 131 0.0 4.0 0.00 0.00 0.00 99 1010.9
20260510081704 46 224 0.0 3.0 0.00 0.00 0.00 99 1011.1
20260510081201 46 235 0.0 2.0 0.00 0.00 0.00 99 1011.4
20260510080701 46 60 0.0 1.0 0.00 0.00 0.00 99 1011.0
20260510080157 46 183 1.0 2.0 0.00 0.00 0.00 99 1011.4
20260510075654 46 193 0.0 1.0 0.00 0.00 0.00 99 1011.3
20260510075152 46 229 0.0 1.0 0.00 0.00 0.00 99 1011.3
20260510074649 46 174 1.0 1.0 0.00 0.00 0.00 99 1011.1
20260510074144 46 206 0.0 1.0 0.00 0.00 0.00 99 1010.9
20260510073641 46 231 1.0 2.0 0.00 0.00 0.00 99 1011.1
20260510073137 46 212 0.0 4.0 0.00 0.00 0.00 99 1011.1
20260510072633 46 313 2.0 3.0 0.00 0.00 0.00 99 1011.2
20260510072130 46 239 3.0 3.0 0.00 0.00 0.00 99 1010.9
20260510071626 46 141 0.0 2.0 0.00 0.00 0.00 99 1011.0
20260510071124 46 255 2.0 3.0 0.00 0.00 0.00 99 1011.0
20260510070621 46 255 1.0 2.0 0.00 0.00 0.00 99 1010.9
20260510070119 46 336 0.0 3.0 0.00 0.00 0.00 99 1010.6
20260510065614 46 232 1.0 2.0 0.00 0.00 0.00 99 1010.7
20260510065110 46 167 1.0 2.0 0.00 0.00 0.00 99 1010.7
20260510064607 46 252 2.0 3.0 0.00 0.00 0.00 99 1010.9
20260510064104 46 180 0.0 2.0 0.00 0.00 0.00 99 1010.5
20260510063601 46 150 0.0 2.0 0.00 0.00 0.00 99 1010.7
20260510063058 46 166 0.0 1.0 0.00 0.00 0.00 99 1010.9
20260510062553 46 202 0.0 3.0 0.00 0.00 0.00 99 1010.8
20260510062049 46 224 0.0 4.0 0.00 0.00 0.00 99 1010.7
20260510061545 47 226 0.0 5.0 0.00 0.00 0.00 99 1010.7
20260510061042 47 261 3.0 6.0 0.00 0.00 0.00 99 1010.7
20260510060538 46 222 1.0 3.0 0.00 0.00 0.00 99 1011.0
20260510060035 47 162 0.0 3.0 0.00 0.00 0.00 99 1010.9
20260510055531 47 221 1.0 6.0 0.00 0.00 0.00 99 1011.1
20260510055029 47 194 0.0 3.0 0.00 0.00 0.00 99 1011.1
20260510054525 47 312 2.0 3.0 0.00 0.00 0.00 99 1010.9
20260510054020 46 224 0.0 3.0 0.00 0.00 0.00 99 1011.0
20260510053515 47 216 2.0 5.0 0.00 0.00 0.00 99 1011.1
20260510053012 47 254 4.0 6.0 0.00 0.00 0.00 99 1011.1
20260510052508 47 208 2.0 5.0 0.00 0.00 0.00 99 1011.1
20260510052004 46 195 2.0 4.0 0.00 0.00 0.00 99 1011.2
20260510051500 46 233 1.0 7.0 0.00 0.00 0.00 99 1011.3
20260510050956 47 226 0.0 6.0 0.00 0.00 0.00 99 1011.1
20260510050454 47 244 3.0 7.0 0.00 0.00 0.00 99 1011.3
20260510045951 47 257 2.0 5.0 0.00 0.00 0.00 99 1011.0
20260510045448 46 269 0.0 6.0 0.00 0.00 0.00 99 1010.9
20260510044944 46 229 6.0 7.0 0.00 0.00 0.00 99 1011.0
20260510044441 46 210 1.0 3.0 0.00 0.00 0.00 99 1011.1
20260510043938 46 242 0.0 3.0 0.00 0.00 0.00 99 1011.3
20260510043434 46 76 1.0 1.0 0.00 0.00 0.00 99 1011.3
20260510042932 46 147 0.0 4.0 0.00 0.00 0.00 99 1011.3
20260510042428 46 224 2.0 4.0 0.00 0.00 0.00 99 1011.3
20260510041924 46 282 4.0 4.0 0.00 0.00 0.00 99 1011.0
20260510041421 46 18 0.0 3.0 0.00 0.00 0.00 99 1011.1
20260510040919 46 295 2.0 2.0 0.00 0.00 0.00 99 1011.3
20260510040415 46 341 2.0 3.0 0.00 0.00 0.00 99 1011.3
20260510035911 46 248 0.0 2.0 0.00 1.08 1.08 99 1011.5
20260510035408 46 275 3.0 3.0 0.00 1.08 1.08 99 1011.3
20260510034902 46 267 2.0 3.0 0.00 1.08 1.08 99 1011.3
20260510034401 46 238 2.0 5.0 0.00 1.08 1.08 99 1011.3
20260510033857 46 235 3.0 5.0 0.00 1.08 1.08 99 1011.2
20260510033354 46 220 1.0 4.0 0.00 1.08 1.08 99 1011.5
20260510032850 46 206 0.0 3.0 0.00 1.08 1.08 99 1011.3
20260510032347 46 228 0.0 3.0 0.00 1.08 1.08 99 1011.2
20260510031843 46 283 0.0 3.0 0.00 1.08 1.08 99 1011.3
20260510031338 46 216 0.0 3.0 0.00 1.08 1.08 99 1011.3
20260510030838 46 218 0.0 2.0 0.00 1.08 1.08 99 1011.4
20260510030334 46 279 0.0 3.0 0.00 1.08 1.08 99 1011.4
20260510025832 46 202 0.0 2.0 0.00 1.08 1.08 99 1011.4
20260510025329 46 215 1.0 3.0 0.00 1.08 1.08 99 1011.1
20260510024826 46 218 0.0 2.0 0.00 1.08 1.08 99 1011.3
20260510024323 46 229 0.0 4.0 0.00 1.08 1.08 99 1011.5
20260510023819 46 124 0.0 3.0 0.00 1.08 1.08 99 1011.6
20260510023315 46 192 1.0 2.0 0.00 1.08 1.08 99 1011.4
20260510022813 46 254 3.0 4.0 0.00 1.08 1.08 99 1011.7
20260510022312 46 284 2.0 4.0 0.00 1.08 1.08 99 1011.4
20260510021811 46 71 1.0 5.0 0.00 1.08 1.08 99 1011.5
20260510021310 46 215 1.0 3.0 0.00 1.08 1.08 99 1011.5
20260510020805 46 297 0.0 4.0 0.00 1.08 1.08 99 1011.6
20260510020305 46 205 3.0 5.0 0.00 1.08 1.08 99 1011.9
20260510015802 46 299 2.0 5.0 0.00 1.08 1.08 99 1011.7
20260510015258 46 245 2.0 5.0 0.00 1.08 1.08 99 1011.8
20260510014753 46 299 0.0 5.0 0.00 1.08 1.08 99 1011.6
20260510014250 46 251 0.0 3.0 0.00 1.08 1.08 99 1011.9
20260510013746 46 155 0.0 4.0 0.00 1.08 1.08 99 1012.2
20260510013242 46 251 3.0 5.0 0.00 1.08 1.08 99 1012.1
20260510012737 46 218 0.0 4.0 0.00 1.08 1.08 99 1011.6
20260510012232 46 285 1.0 4.0 0.00 1.08 1.08 99 1011.6
20260510011731 46 246 0.0 2.0 0.00 1.08 1.08 99 1011.8
20260510011227 46 269 0.0 4.0 0.00 1.08 1.08 99 1011.7
20260510010725 46 269 2.0 3.0 0.00 1.08 1.08 99 1011.6
20260510010215 46 321 4.0 6.0 0.00 1.08 1.08 99 1011.3
20260510005712 46 315 0.0 3.0 0.00 1.08 1.08 99 1011.6
20260510005209 46 198 0.0 4.0 0.00 1.08 1.08 99 1011.6
20260510004707 46 135 0.0 3.0 0.00 1.08 1.08 99 1011.6
20260510004205 45 319 2.0 3.0 0.00 1.08 1.08 99 1011.5
20260510003702 45 290 0.0 3.0 0.00 1.08 1.08 99 1011.4
20260510003158 45 245 0.0 4.0 0.00 1.08 1.08 99 1011.3
20260510002657 45 258 0.0 3.0 0.00 1.08 1.08 99 1011.1
20260510002154 45 205 0.0 5.0 0.00 1.08 1.08 99 1011.0
20260510001651 45 29 2.0 3.0 0.00 1.08 1.08 99 1010.8
20260510001150 45 265 3.0 3.0 0.00 1.08 1.08 99 1010.7
20260510000650 45 108 0.0 3.0 0.00 1.08 1.08 99 1011.0
20260510000148 45 256 2.0 5.0 0.00 1.08 1.08 99 1010.8
20260509235644 45 293 2.0 3.0 0.00 1.08 1.08 99 1010.9
20260509235141 45 42 1.0 3.0 0.00 1.08 1.08 99 1011.1
20260509234637 45 245 3.0 5.0 0.00 1.08 1.08 99 1011.1
20260509234134 45 288 3.0 4.0 0.00 1.08 1.08 99 1010.8
20260509233632 45 227 3.0 3.0 0.00 1.08 1.08 99 1010.8
20260509233129 45 69 0.0 0.0 0.00 1.08 1.08 99 1011.0
20260509232625 45 113 0.0 1.0 0.00 1.08 1.08 99 1011.0
20260509232122 45 68 1.0 1.0 0.00 1.08 1.08 99 1011.0
20260509231619 45 25 0.0 3.0 0.00 1.08 1.08 99 1011.1
20260509231117 45 62 3.0 3.0 0.00 1.08 1.08 99 1010.9
20260509230613 45 49 0.0 3.0 0.00 1.08 1.08 99 1011.1
20260509230111 45 305 1.0 2.0 0.00 1.08 1.08 99 1011.0
20260509225606 45 130 0.0 3.0 0.00 1.08 1.08 99 1010.8
20260509225101 45 70 2.0 4.0 0.00 1.08 1.08 99 1010.9
20260509224557 45 255 1.0 3.0 0.00 1.08 1.08 99 1011.0
20260509224055 44 210 0.0 3.0 0.00 1.08 1.08 99 1011.0
20260509223551 45 352 0.0 2.0 0.00 1.08 1.08 99 1011.0
20260509223049 44 42 2.0 3.0 0.00 1.08 1.08 99 1010.8
20260509222545 44 99 0.0 3.0 0.00 1.08 1.08 99 1010.8
20260509222041 44 70 2.0 6.0 0.00 1.08 1.08 99 1010.7
20260509221537 44 287 0.0 2.0 0.00 1.08 1.08 99 1010.8
20260509221033 44 320 2.0 3.0 0.00 1.08 1.08 99 1010.7
20260509220529 44 18 0.0 1.0 0.00 1.08 1.08 99 1010.9
20260509220026 44 333 0.0 3.0 0.00 1.08 1.08 99 1010.6
20260509215521 44 191 0.0 3.0 0.00 1.08 1.08 99 1010.6
20260509215018 44 302 2.0 3.0 0.00 1.08 1.08 99 1010.9
20260509214515 44 32 1.0 2.0 0.00 1.08 1.08 99 1010.9
20260509214012 44 258 1.0 4.0 0.00 1.08 1.08 99 1010.9
20260509213508 44 247 2.0 3.0 0.00 1.08 1.08 99 1011.0
20260509213006 44 139 2.0 3.0 0.00 1.08 1.08 99 1011.0
20260509212502 43 202 0.0 5.0 0.00 1.08 1.08 99 1011.0
20260509211959 43 212 1.0 3.0 0.00 1.08 1.08 99 1011.1
20260509211454 44 248 2.0 4.0 0.00 1.08 1.08 99 1011.0
20260509210951 43 266 2.0 3.0 0.02 1.08 1.08 99 1011.3
20260509210448 43 150 0.0 3.0 0.02 1.07 1.07 99 1011.4
20260509205944 43 283 0.0 3.0 0.07 1.07 1.07 99 1011.3
20260509205439 43 286 0.0 3.0 0.07 1.07 1.07 99 1011.3
20260509204935 43 244 4.0 4.0 0.05 1.06 1.06 99 1011.6
20260509204431 43 17 1.0 3.0 0.05 1.05 1.05 99 1011.5
20260509203928 43 163 2.0 4.0 0.07 1.05 1.05 99 1011.5
20260509203424 43 259 1.0 3.0 0.09 1.05 1.05 99 1011.5
20260509202922 43 150 0.0 1.0 0.14 1.04 1.04 99 1011.3
20260509202417 43 203 2.0 2.0 0.14 1.03 1.03 99 1011.4
20260509201913 43 166 0.0 3.0 0.14 1.02 1.02 99 1011.5
20260509201408 43 195 0.0 3.0 0.17 1.00 1.00 99 1011.7
20260509200905 43 161 1.0 2.0 0.19 0.99 0.99 99 1011.9
20260509200359 43 44 0.0 2.0 0.12 0.97 0.97 99 1011.6
20260509195856 43 296 0.0 1.0 0.09 0.96 0.96 99 1011.8
20260509195356 43 106 0.0 2.0 0.12 0.95 0.95 99 1011.7
20260509194856 43 145 0.0 2.0 0.09 0.94 0.94 99 1011.7
20260509194353 43 141 0.0 5.0 0.12 0.93 0.93 99 1011.7
20260509193849 42 137 1.0 2.0 0.14 0.92 0.92 99 1011.6
20260509193344 42 126 0.0 2.0 0.12 0.91 0.91 99 1011.5
20260509192841 42 95 0.0 2.0 0.14 0.90 0.90 99 1011.6
20260509192336 42 211 0.0 3.0 0.14 0.88 0.88 99 1011.7
20260509191831 42 135 2.0 2.0 0.14 0.87 0.87 99 1011.5
20260509191327 42 124 0.0 2.0 0.14 0.86 0.86 99 1011.7
20260509190823 42 193 0.0 2.0 0.12 0.85 0.85 99 1011.8
20260509190321 42 212 0.0 1.0 0.12 0.83 0.83 99 1011.9
20260509185819 42 135 0.0 2.0 0.12 0.82 0.82 99 1011.8
20260509185315 42 163 0.0 1.0 0.12 0.81 0.81 99 1012.2
20260509184812 42 126 0.0 3.0 0.12 0.80 0.80 99 1012.4
20260509184309 42 269 0.0 3.0 0.09 0.79 0.79 99 1012.3
20260509183805 42 175 0.0 2.0 0.12 0.78 0.78 99 1012.3
20260509183300 42 147 0.0 1.0 0.12 0.77 0.77 99 1012.1
20260509182756 41 16 0.0 2.0 0.12 0.76 0.76 99 1012.2
20260509182254 41 211 1.0 3.0 0.12 0.75 0.75 99 1012.2
20260509181751 42 225 0.0 2.0 0.12 0.74 0.74 99 1012.2
20260509181248 42 97 0.0 3.0 0.12 0.72 0.72 99 1012.3
20260509180745 41 33 1.0 2.0 0.12 0.71 0.71 99 1012.2
20260509180242 42 240 0.0 2.0 0.09 0.70 0.70 99 1012.4
20260509175738 42 245 1.0 3.0 0.07 0.69 0.69 99 1012.4
20260509175234 42 56 0.0 1.0 0.07 0.69 0.69 99 1012.3
20260509174731 41 202 0.0 2.0 0.07 0.68 0.68 99 1012.4
20260509174226 41 135 0.0 2.0 0.09 0.67 0.67 99 1012.8
20260509173722 41 89 0.0 3.0 0.12 0.66 0.66 99 1012.5
20260509173218 41 59 0.0 3.0 0.14 0.65 0.65 99 1012.8
20260509172714 41 202 0.0 5.0 0.09 0.64 0.64 99 1012.8
20260509172211 41 140 0.0 2.0 0.09 0.63 0.63 99 1012.7
20260509171706 41 304 0.0 2.0 0.12 0.62 0.62 99 1012.8
20260509171203 41 4 1.0 2.0 0.12 0.61 0.61 99 1012.9
20260509170700 40 216 0.0 4.0 0.12 0.59 0.59 99 1013.0
20260509170156 40 8 0.0 5.0 0.17 0.59 0.59 99 1013.0
20260509165654 41 254 0.0 2.0 0.14 0.57 0.57 99 1012.9
20260509165150 41 281 0.0 2.0 0.14 0.56 0.56 99 1012.8
20260509164646 41 240 0.0 4.0 0.14 0.55 0.55 99 1012.9
20260509164142 41 310 0.0 3.0 0.14 0.53 0.53 99 1012.8
20260509163640 41 273 3.0 3.0 0.14 0.52 0.52 99 1013.0
20260509163135 40 184 0.0 2.0 0.12 0.50 0.50 99 1013.1
20260509162633 41 49 2.0 2.0 0.17 0.50 0.50 99 1012.9
20260509162128 40 59 0.0 3.0 0.14 0.48 0.48 99 1013.0
20260509161625 40 163 1.0 2.0 0.12 0.47 0.47 99 1013.0
20260509161120 41 180 1.0 2.0 0.14 0.46 0.46 99 1013.3